This is the latest recevied weather packets stored in our database for station/object CA3EVY-3. If no packets are shown the sender has not sent any weather packets the latest 10 day(s).
| Time | Temp. | Humidity | Pressure | Rain* | Wind** | Luminosity | Snow |
|---|---|---|---|---|---|---|---|
| 1777831209 | 23.89° C | 35% | 918.4 hPa | - | - | - | - |
| 1777830304 | 23.33° C | 35% | 918.3 hPa | - | - | - | - |
| 1777829404 | 22.78° C | 38% | 918.6 hPa | - | - | - | - |
| 1777828503 | 22.78° C | 38% | 918.9 hPa | - | - | - | - |
| 1777827604 | 21.67° C | 40% | 919.1 hPa | - | - | - | - |
| 1777826703 | 21.67° C | 40% | 919.2 hPa | - | - | - | - |
| 1777825804 | 20.56° C | 42% | 919.3 hPa | - | - | - | - |
| 1777824904 | 20° C | 42% | 919.4 hPa | - | - | - | - |
| 1777824004 | 19.44° C | 43% | 919.4 hPa | - | - | - | - |
| 1777823104 | 18.89° C | 43% | 919.4 hPa | - | - | - | - |
| 1777822204 | 18.33° C | 44% | 919.4 hPa | - | - | - | - |
| 1777821303 | 17.78° C | 44% | 919.6 hPa | - | - | - | - |
| 1777820403 | 17.22° C | 46% | 919.7 hPa | - | - | - | - |
| 1777819503 | 16.67° C | 46% | 919.8 hPa | - | - | - | - |
| 1777818609 | 16.11° C | 46% | 919.7 hPa | - | - | - | - |
| 1777817703 | 16.11° C | 46% | 919.6 hPa | - | - | - | - |
| 1777816805 | 15° C | 48% | 919.5 hPa | - | - | - | - |
| 1777815903 | 14.44° C | 48% | 919.3 hPa | - | - | - | - |
| 1777815003 | 13.89° C | 51% | 919.5 hPa | - | - | - | - |
| 1777814104 | 13.33° C | 51% | 919.6 hPa | - | - | - | - |
| 1777813204 | 13.33° C | 50% | 919.4 hPa | - | - | - | - |
| 1777812304 | 12.78° C | 50% | 919.3 hPa | - | - | - | - |
| 1777811403 | 12.78° C | 49% | 919.5 hPa | - | - | - | - |
| 1777810505 | 12.78° C | 49% | 919.3 hPa | - | - | - | - |
| 1777809603 | 12.78° C | 48% | 919.1 hPa | - | - | - | - |
* Rain since midnight (hover to see other rain measurements)
** Current wind speed in m/s (hover to see current wind gust speed)